Temperature
26 25 26 27 28 28 28 28 27 28 29 28 27 27 27 26 25 25 23 22 21 20 19 18 17 17 17 17 17 17 17 17 17 17 17 16 16 16 16 16 16 16 16 16
26 26 27 28 28 28 27 27 27 28 28 28 27 26 26 26 25 24 22 21 20 19 18 17 16 16 16 16 16 16 16 16 16 16 16 16 16 16 16 15 15 16 16 15
26 27 28 28 27 27 27 27 27 27 28 28 26 25 25 25 24 22 21 20 19 18 17 16 16 15 15 15 15 15 15 15 15 16 16 16 15 15 15 15 15 15 15 15
27 28 28 27 27 27 26 28 27 27 26 25 26 24 24 23 22 22 21 19 18 17 16 16 15 14 14 14 14 14 15 15 15 15 15 15 15 15 14 14 14 14 14 14
27 27 27 26 27 27 27 28 27 26 25 24 25 23 23 23 21 20 20 19 18 17 16 15 14 14 13 13 14 14 14 14 14 15 15 14 14 14 13 13 13 13 13 13
27 28 28 27 28 28 27 27 26 26 24 23 22 22 22 22 21 19 18 18 17 16 15 14 13 13 13 13 13 13 13 13 13 14 14 14 13 13 13 13 13 12 12 12
26 27 28 28 27 27 27 25 23 22 21 21 21 21 20 21 22 20 18 16 15 15 14 13 12 12 12 12 12 12 12 12 12 12 13 13 12 12 12 12 12 12 12 11
24 24 26 27 26 26 26 25 23 21 22 21 20 19 19 20 20 18 17 15 14 13 13 12 11 11 11 11 11 11 11 11 11 11 11 12 11 11 11 11 11 11 11 11
24 24 26 27 27 27 25 25 25 23 23 22 21 20 19 19 18 17 15 14 13 12 12 11 10 10 10 10 10 10 10 11 11 11 11 11 11 10 10 10 10 10 10 9
25 24 25 26 27 27 26 25 24 23 21 20 21 20 18 17 17 16 15 13 12 11 11 10 10 10 9 9 9 10 10 10 10 10 10 10 10 10 9 9 9 9 9 9
26 24 24 25 25 25 25 25 24 23 23 21 19 19 19 18 17 16 15 13 12 11 10 10 9 9 9 9 9 9 9 9 9 9 9 9 8 8 8 8 8 8 8 8
25 24 23 24 24 24 25 25 24 22 21 22 20 18 19 18 17 15 14 12 11 10 10 9 9 9 8 8 8 8 8 8 8 8 8 8 8 7 7 7 7 7 7 7
24 23 21 21 21 21 22 23 24 24 22 21 20 18 18 17 15 14 12 11 10 9 9 9 8 8 8 8 8 8 8 8 8 7 7 7 7 7 7 6 6 6 7 6
24 23 22 20 19 19 20 22 24 23 22 21 20 18 16 16 15 13 12 10 9 9 8 8 8 8 7 7 7 7 7 7 7 7 7 7 6 6 6 6 6 6 6 6
23 22 23 22 23 22 23 23 24 23 22 21 20 19 17 16 15 13 11 10 9 8 8 8 7 7 7 7 7 7 7 7 7 6 6 6 6 6 6 6 6 5 5 6
23 22 22 22 23 23 23 24 24 23 22 21 20 18 17 15 13 12 11 10 9 8 8 7 7 7 7 7 7 6 6 6 6 6 6 6 6 6 6 5 5 5 5 5
21 21 20 21 23 22 22 23 23 23 23 22 20 18 16 15 13 12 10 10 9 8 8 7 7 7 7 7 6 6 6 6 6 6 6 6 6 6 6 6 5 5 5 5
21 20 20 21 21 19 21 23 23 23 22 21 19 17 16 14 12 11 10 9 9 8 8 7 7 7 7 7 6 6 6 6 6 6 6 6 6 6 6 6 6 6 5 5
22 21 20 20 20 20 21 22 22 21 20 20 18 17 14 13 12 10 10 9 8 8 8 7 7 7 7 6 6 6 6 6 6 6 6 6 6 6 6 6 6 6 6 5
23 22 20 20 19 18 20 22 23 21 19 19 18 16 14 14 13 10 9 8 8 7 7 7 7 7 7 6 6 6 6 6 6 6 6 6 6 6 6 6 6 6 6 6
21 21 20 20 19 19 21 22 22 19 18 18 17 16 15 15 13 10 9 8 7 7 7 7 7 7 6 6 6 6 6 6 6 6 6 6 6 6 6 6 6 6 6 6
22 21 20 20 19 19 21 22 20 18 18 17 16 15 13 12 10 9 8 8 7 7 7 7 7 6 6 6 6 6 6 6 6 6 6 6 6 6 6 6 6 6 6 6
22 21 21 19 19 19 19 19 18 18 17 16 15 13 12 10 9 8 8 7 7 7 7 7 7 6 6 6 6 6 6 6 6 6 6 6 6 6 6 6 6 6 6 6
21 21 21 20 19 19 19 18 18 17 16 15 14 12 11 10 9 8 8 7 7 7 7 7 7 6 6 6 6 6 6 6 6 6 6 6 6 6 6 6 6 6 6 6
20 20 21 19 19 19 18 18 17 16 15 14 13 12 11 10 9 8 8 7 7 7 7 7 7 7 6 6 6 6 6 6 6 6 6 6 6 6 6 6 6 6 6 6
21 20 20 20 20 20 18 17 16 15 14 13 12 11 10 10 9 8 8 8 7 7 7 7 7 7 7 7 6 6 6 6 6 7 7 7 7 7 6 6 6 6 6 6
Wind_Speed
13 13 13 12 12 11 12 12 12 9 4 5 8 8 6 4 5 5 5 5 4 5 7 9 9 8 8 7 6 5 4 4 3 3 4 4 3 2 2 2 2 2 2 3
14 15 14 9 7 9 12 13 13 10 6 6 9 9 7 6 5 3 3 6 5 6 7 8 8 8 8 7 5 4 4 4 3 2 3 3 3 3 3 3 4 4 2 0
15 10 5 6 9 10 12 13 12 11 9 10 12 12 10 5 3 4 4 5 5 5 7 7 7 8 7 7 7 4 4 3 3 4 4 4 4 4 3 3 3 4 4 3
12 9 4 8 11 10 11 10 11 13 13 12 11 12 7 7 7 5 5 6 6 6 7 7 7 8 8 7 7 7 5 5 5 4 5 6 5 4 3 3 4 5 7 6
10 10 9 10 10 8 11 11 12 13 13 14 12 10 7 7 7 6 5 7 8 8 8 8 8 9 9 9 8 8 7 7 6 5 6 6 6 6 5 6 7 7 7 8
15 11 9 10 9 9 11 13 14 12 11 13 10 9 8 5 7 9 8 8 9 9 10 10 10 11 10 10 10 9 8 8 8 8 8 8 9 9 8 7 7 6 6 7
13 13 10 8 10 9 9 11 9 8 6 8 5 6 3 1 8 12 12 10 10 10 10 10 11 11 11 11 10 9 9 9 9 9 10 10 10 10 10 8 8 7 7 7
10 8 7 7 9 8 8 10 9 10 11 6 2 3 1 6 11 12 12 12 11 11 11 12 12 12 11 11 10 10 10 10 10 10 10 10 10 9 8 9 8 8 7 8
7 5 5 8 8 9 9 10 10 11 13 11 4 2 4 7 11 11 11 11 11 12 12 12 12 12 12 12 11 10 10 11 11 11 11 12 12 11 11 11 10 8 7 8
8 9 8 8 9 9 9 9 7 7 7 9 7 1 1 3 6 9 10 10 10 12 12 12 12 11 11 11 11 12 12 12 11 11 11 11 11 11 11 11 11 10 10 9
8 8 10 8 8 9 7 7 7 7 7 7 7 3 3 5 6 9 11 11 11 12 11 11 11 11 11 11 11 12 12 12 11 12 11 12 11 10 11 11 11 10 9 9
5 6 9 8 7 9 9 8 7 6 8 9 7 2 4 6 7 11 12 12 11 12 11 11 11 11 11 11 11 11 11 11 11 11 11 11 11 10 11 10 9 9 8 8
4 4 8 7 6 7 7 10 10 8 7 8 7 1 6 10 11 11 12 12 11 11 11 11 11 10 10 10 10 10 10 11 11 11 12 11 10 10 10 9 8 8 8 8
4 7 8 8 7 4 8 12 11 9 7 8 6 2 7 8 11 11 12 12 11 11 10 10 10 11 10 10 10 10 10 10 11 11 11 10 9 9 8 8 8 8 7 8
4 8 10 10 10 9 11 12 9 7 7 7 5 1 7 9 12 13 12 12 12 11 11 11 11 10 10 10 10 9 9 9 10 10 10 9 8 8 8 8 7 6 6 8
4 7 11 13 12 12 12 10 7 6 5 4 1 4 10 12 13 13 12 13 12 12 11 11 11 10 10 9 9 9 8 8 8 9 9 8 8 8 8 7 6 6 6 6
4 6 9 11 12 11 8 6 5 4 4 3 2 7 13 14 13 13 13 12 13 13 12 11 10 9 9 9 8 8 8 7 8 8 8 7 7 7 7 7 6 5 5 5
7 8 6 9 9 7 4 5 3 3 5 6 10 13 13 13 12 12 12 13 13 13 13 11 10 10 9 9 8 7 7 7 7 8 7 6 6 6 5 6 6 5 5 5
9 8 6 6 7 4 2 1 0 2 4 7 11 13 15 16 14 10 11 12 13 13 12 10 10 10 9 9 8 8 7 7 7 7 6 6 5 5 5 5 5 4 4 4
9 8 7 8 7 5 1 2 2 3 3 8 12 14 15 14 7 8 11 13 14 13 11 10 10 10 9 8 7 7 7 7 7 6 6 6 5 5 5 5 4 4 3 4
9 9 10 10 7 2 1 1 1 1 4 8 11 12 12 7 8 15 16 15 14 13 12 11 10 9 8 7 7 7 7 7 6 5 6 6 5 5 5 4 3 3 3 4
7 5 5 5 4 0 3 2 3 6 9 10 10 12 13 15 19 19 17 16 15 13 12 11 10 9 7 7 7 7 6 5 5 5 6 5 4 4 6 3 3 3 3 4
3 0 0 1 2 5 7 8 8 9 11 12 13 16 18 18 19 18 17 16 14 13 12 10 11 10 7 7 6 7 6 5 5 5 5 4 5 5 4 2 3 3 2 2
1 2 1 4 6 7 8 9 9 11 13 14 16 17 18 19 18 18 16 14 13 13 12 11 11 10 8 7 8 7 6 5 5 5 5 4 3 4 3 3 3 4 4 4
3 2 1 4 8 9 9 10 12 14 16 16 17 17 18 19 19 18 16 15 13 12 11 11 10 9 9 8 8 6 6 4 4 4 4 4 4 5 5 7 6 7 7 6
2 1 2 3 7 8 12 13 15 16 16 17 18 18 17 18 18 17 15 14 13 13 12 11 11 10 10 9 7 6 5 5 4 4 4 3 3 3 4 6 6 10 8 9
Wind_Direction
226 233 244 244 238 265 294 298 294 287 261 238 253 253 244 215 203 197 167 133 108 95 84 70 61 56 57 54 57 66 74 85 98 131 153 154 150 128 115 88 61 89 152 191
238 236 248 267 285 281 280 280 280 280 274 261 268 264 248 215 205 170 131 110 109 93 77 71 68 60 56 50 55 66 75 81 95 123 139 146 139 124 107 80 59 54 69 105
240 250 238 266 267 262 267 274 284 291 282 262 260 254 239 211 169 135 128 118 98 95 81 64 61 57 52 47 43 41 57 77 83 92 103 109 102 97 88 80 63 50 58 69
253 255 250 258 261 265 275 281 290 291 285 276 263 268 243 178 163 160 156 129 112 98 89 71 65 61 53 49 49 50 57 64 68 87 109 116 117 112 99 88 78 63 51 50
256 253 249 253 262 274 282 302 293 286 283 279 275 270 263 168 159 151 134 122 109 94 84 73 67 65 56 50 51 50 56 63 62 70 91 99 96 95 88 82 76 65 53 48
264 264 253 260 272 273 280 285 282 277 276 269 283 283 273 179 163 141 127 108 106 92 79 70 69 63 54 48 49 49 53 59 60 65 74 86 93 95 91 83 80 71 60 51
252 255 249 249 263 267 274 279 284 284 272 267 292 290 279 86 139 137 131 114 96 89 81 71 65 62 55 48 48 50 56 61 64 69 69 75 85 90 87 84 80 75 65 57
269 259 245 243 257 273 273 276 281 295 296 288 244 244 135 82 94 107 112 110 98 87 80 72 65 62 57 52 50 53 61 65 66 70 73 73 77 82 82 78 78 74 73 70
290 294 266 250 251 261 272 277 288 291 293 292 255 179 121 94 97 102 108 107 97 86 81 74 67 64 60 56 54 58 65 69 69 72 76 75 74 78 81 80 77 74 72 74
276 291 281 274 263 253 261 286 303 301 300 299 297 319 119 136 127 121 115 113 105 93 82 75 69 65 65 64 65 65 67 70 71 73 75 79 76 79 81 81 79 75 72 71
271 282 286 280 276 296 283 270 278 289 292 298 304 344 127 161 151 139 131 127 117 102 92 84 78 72 71 70 71 72 72 74 74 76 78 79 78 80 82 81 81 79 76 74
284 287 287 290 319 327 301 291 279 280 293 295 298 346 72 117 117 120 119 116 108 103 98 92 85 80 75 72 73 76 79 81 85 86 83 82 83 82 83 84 84 83 83 80
322 291 289 298 339 351 320 303 299 295 288 293 302 322 91 98 105 111 117 118 115 110 105 99 91 85 81 79 78 78 79 84 87 89 89 87 86 87 87 86 85 83 80 76
299 277 279 282 285 265 277 278 286 295 299 308 313 143 134 125 123 117 119 122 120 115 111 104 97 91 88 85 83 83 81 85 90 90 91 91 89 88 90 90 87 86 86 84
263 273 283 281 274 262 266 276 290 303 305 306 321 75 137 141 135 128 124 122 119 116 112 106 102 101 98 94 90 88 87 88 92 94 92 92 93 92 91 89 89 90 92 93
254 281 292 289 283 281 282 288 299 297 305 307 44 85 122 126 124 127 131 131 128 125 120 114 112 112 108 105 105 104 102 103 106 104 103 103 100 96 93 90 87 85 83 87
285 284 289 289 291 291 288 294 292 315 350 341 16 121 129 129 133 138 140 138 136 134 128 125 121 118 115 111 108 106 109 110 107 106 106 103 100 100 104 108 102 98 94 91
257 272 278 281 291 282 280 319 353 31 43 65 102 123 129 130 127 130 136 136 136 134 131 129 126 122 119 117 116 112 107 103 102 101 99 99 105 107 108 106 104 98 95 94
229 251 269 279 285 272 264 201 27 50 67 96 119 123 124 124 116 114 126 131 132 132 130 127 126 126 126 123 122 116 107 106 103 101 104 104 99 99 103 102 107 109 113 115
218 230 249 270 287 288 302 80 81 106 111 111 128 135 142 148 146 142 136 130 128 127 127 127 129 129 125 125 126 122 120 114 110 110 111 109 106 101 98 102 110 121 129 122
215 226 242 262 271 260 26 19 309 293 134 126 135 145 156 160 122 135 135 130 131 132 135 135 134 130 128 134 135 128 118 114 113 110 110 113 109 108 101 93 94 108 106 99
229 230 247 266 263 227 5 13 60 100 120 127 131 131 123 114 119 129 133 134 137 139 140 138 134 130 132 137 134 122 115 115 113 108 105 100 101 103 102 102 95 93 106 115
246 113 337 54 93 93 63 80 100 116 121 124 124 124 124 125 130 133 135 138 140 141 140 138 134 130 129 132 130 125 121 117 109 104 101 96 87 83 96 110 121 128 130 116
3 25 149 121 118 108 99 100 105 110 117 121 125 129 131 132 134 135 137 140 141 140 140 139 138 136 134 133 126 124 125 121 114 111 112 113 108 102 84 61 61 63 53 55
282 257 151 124 135 127 119 116 114 114 117 120 124 128 133 135 137 138 139 140 140 139 140 142 141 138 135 133 130 131 127 120 120 124 121 114 108 100 86 73 53 65 57 54
232 216 211 157 150 138 131 125 124 125 125 126 127 127 132 135 137 138 138 139 141 142 143 144 141 139 137 136 133 132 131 128 129 130 127 121 120 118 123 121 97 64 83 82
Height
1473 1474 1469 1461 1456 1455 1453 1454 1454 1448 1443 1450 1455 1456 1457 1459 1463 1468 1471 1474 1477 1480 1483 1484 1486 1487 1488 1488 1489 1489 1491 1492 1494 1497 1499 1501 1502 1505 1506 1509 1512 1513 1515 1517
1468 1466 1458 1452 1452 1455 1456 1458 1455 1448 1444 1450 1455 1456 1456 1458 1463 1468 1471 1476 1480 1482 1484 1485 1486 1487 1488 1488 1489 1489 1491 1491 1493 1495 1497 1500 1501 1503 1506 1508 1509 1510 1512 1515
1462 1455 1451 1454 1456 1458 1457 1457 1454 1452 1448 1448 1454 1458 1456 1456 1462 1467 1473 1477 1481 1483 1485 1487 1487 1488 1488 1488 1489 1489 1490 1491 1493 1494 1496 1498 1501 1502 1505 1506 1507 1508 1510 1512
1454 1450 1453 1456 1456 1455 1459 1450 1450 1452 1456 1457 1456 1467 1458 1457 1463 1469 1474 1478 1481 1483 1485 1487 1488 1488 1488 1489 1489 1489 1490 1492 1493 1494 1494 1496 1498 1500 1503 1504 1505 1506 1508 1510
1454 1450 1452 1456 1453 1452 1454 1449 1450 1452 1457 1461 1457 1466 1462 1458 1466 1471 1475 1479 1482 1485 1486 1487 1489 1489 1489 1490 1490 1490 1491 1492 1493 1494 1494 1496 1498 1500 1502 1504 1505 1505 1506 1508
1451 1447 1448 1449 1448 1449 1449 1451 1451 1452 1458 1471 1468 1471 1469 1461 1464 1470 1476 1481 1484 1487 1487 1489 1490 1490 1491 1491 1491 1491 1492 1493 1493 1494 1495 1496 1498 1499 1501 1503 1504 1505 1506 1507
1455 1449 1446 1448 1451 1449 1451 1459 1470 1473 1478 1478 1468 1473 1472 1461 1461 1468 1476 1482 1485 1487 1488 1490 1491 1491 1492 1493 1492 1493 1493 1494 1495 1496 1496 1497 1498 1499 1501 1503 1504 1505 1506 1507
1461 1461 1451 1448 1451 1453 1453 1457 1473 1483 1478 1473 1471 1478 1473 1466 1467 1473 1480 1485 1487 1489 1491 1492 1493 1493 1494 1495 1494 1494 1495 1495 1496 1497 1497 1498 1499 1500 1501 1503 1504 1506 1507 1508
1460 1461 1448 1445 1445 1447 1452 1453 1450 1462 1463 1468 1470 1470 1471 1469 1472 1478 1484 1488 1489 1490 1493 1494 1495 1495 1496 1496 1496 1496 1497 1497 1497 1498 1499 1499 1500 1501 1502 1503 1505 1507 1508 1509
1452 1460 1450 1446 1444 1443 1445 1448 1454 1464 1477 1478 1471 1472 1480 1477 1479 1483 1486 1490 1492 1493 1494 1496 1497 1498 1498 1498 1499 1499 1499 1499 1499 1500 1500 1501 1502 1503 1504 1506 1507 1509 1510 1511
1448 1459 1455 1449 1450 1450 1449 1451 1454 1458 1461 1475 1481 1482 1472 1475 1477 1481 1486 1490 1493 1494 1496 1498 1500 1500 1501 1501 1501 1501 1502 1502 1502 1502 1503 1503 1505 1506 1507 1509 1510 1512 1513 1514
1450 1455 1460 1455 1451 1449 1447 1448 1451 1465 1467 1463 1471 1483 1470 1474 1477 1482 1488 1493 1495 1496 1499 1500 1502 1503 1503 1504 1504 1504 1504 1505 1505 1506 1507 1507 1509 1510 1511 1512 1514 1515 1516 1518
1452 1459 1469 1468 1468 1461 1459 1452 1448 1450 1457 1463 1472 1483 1474 1477 1482 1486 1491 1495 1497 1499 1501 1503 1504 1505 1506 1507 1507 1507 1508 1508 1509 1510 1510 1512 1513 1514 1515 1516 1518 1519 1520 1522
1456 1459 1467 1479 1475 1469 1466 1455 1449 1450 1459 1464 1467 1474 1478 1480 1485 1489 1493 1496 1499 1501 1503 1505 1506 1507 1509 1510 1511 1511 1512 1512 1513 1514 1514 1515 1517 1518 1519 1521 1522 1523 1524 1525
1456 1460 1457 1456 1453 1454 1453 1450 1446 1449 1453 1460 1462 1467 1474 1479 1485 1490 1495 1498 1500 1503 1505 1507 1509 1510 1512 1513 1514 1515 1516 1516 1517 1518 1519 1520 1521 1522 1524 1525 1526 1527 1528 1529
1456 1460 1458 1456 1449 1448 1448 1444 1445 1447 1450 1454 1459 1469 1473 1480 1486 1492 1496 1499 1502 1505 1507 1509 1511 1513 1515 1516 1517 1519 1520 1521 1521 1522 1524 1525 1526 1526 1528 1529 1530 1531 1532 1533
1459 1462 1464 1462 1451 1450 1455 1447 1446 1446 1447 1452 1460 1469 1475 1482 1487 1492 1496 1500 1503 1506 1508 1511 1514 1516 1517 1519 1520 1522 1523 1525 1525 1526 1528 1529 1530 1531 1532 1533 1533 1534 1535 1536
1460 1461 1462 1460 1459 1471 1457 1444 1443 1447 1450 1453 1460 1469 1475 1482 1489 1494 1497 1500 1504 1507 1510 1513 1515 1518 1520 1522 1524 1525 1526 1528 1529 1530 1531 1532 1533 1534 1535 1536 1537 1538 1539 1539
1452 1456 1461 1462 1464 1461 1452 1447 1447 1451 1457 1458 1464 1472 1479 1485 1491 1497 1500 1502 1505 1508 1512 1515 1518 1520 1522 1525 1526 1528 1530 1531 1532 1533 1534 1536 1536 1537 1538 1539 1540 1540 1541 1542
1446 1450 1458 1459 1467 1470 1457 1446 1446 1452 1463 1463 1466 1473 1480 1484 1488 1498 1501 1504 1507 1510 1513 1517 1520 1522 1525 1527 1529 1531 1532 1534 1535 1537 1537 1538 1539 1540 1541 1541 1542 1543 1543 1544
1449 1450 1454 1456 1461 1459 1450 1447 1448 1461 1467 1465 1469 1474 1479 1482 1486 1495 1501 1505 1509 1512 1516 1519 1522 1525 1527 1529 1531 1533 1535 1536 1538 1539 1540 1541 1542 1543 1543 1544 1544 1545 1546 1546
1445 1448 1452 1453 1460 1464 1450 1447 1455 1462 1462 1466 1471 1476 1481 1485 1489 1496 1501 1506 1510 1514 1518 1521 1524 1527 1529 1532 1534 1536 1537 1539 1540 1542 1543 1544 1545 1546 1546 1546 1547 1547 1547 1548
1440 1443 1446 1452 1458 1455 1454 1455 1459 1461 1465 1469 1474 1479 1483 1488 1493 1499 1504 1508 1513 1516 1520 1523 1526 1529 1532 1534 1536 1538 1540 1541 1543 1544 1545 1546 1547 1547 1548 1548 1549 1549 1550 1550
1441 1441 1443 1449 1453 1454 1457 1459 1462 1464 1468 1472 1476 1481 1485 1490 1496 1501 1506 1510 1515 1518 1522 1525 1528 1531 1534 1536 1539 1540 1542 1543 1545 1546 1547 1548 1549 1549 1550 1550 1551 1551 1551 1552
1445 1443 1443 1449 1453 1455 1459 1462 1465 1468 1472 1476 1480 1484 1488 1493 1498 1503 1508 1512 1516 1520 1524 1527 1530 1533 1536 1538 1541 1543 1544 1545 1546 1548 1549 1550 1550 1551 1551 1552 1552 1552 1553 1553
1441 1443 1444 1447 1449 1452 1460 1464 1467 1471 1475 1479 1483 1487 1492 1496 1500 1505 1510 1514 1518 1522 1526 1529 1532 1535 1538 1540 1542 1545 1546 1547 1548 1549 1550 1551 1552 1553 1553 1553 1554 1554 1554 1555